RH
20 22 24 22 26 31 34 37 37 40 50 66 81 93 98 91 87 92 99 97 85 76 69 60 54 49 51 55 55 54 52 52 50 56 63 66 64 59 58 60 64 70 76 75 59 50 47 46 44 38 44 45 45 49 49 46 43 44 36 29 35 39 31 15 8 16 17 20 37 46 45 38 27 23 22 25 27 31 32 31 29 27 25 24 26 29 33 36 37 41 60 93 99 92 103 97 90
22 20 23 24 24 25 24 28 29 29 29 29 40 57 77 92 99 100 95 85 76 72 70 64 57 56 62 70 75 75 69 65 62 63 67 69 68 65 66 67 64 65 67 60 43 36 36 36 36 37 41 43 45 48 46 43 41 38 30 29 28 22 12 9 15 19 17 30 44 44 36 26 21 25 29 34 37 39 36 34 32 29 26 25 26 27 32 36 39 39 42 81 103 91 100 92 86
26 23 20 21 22 24 25 26 25 24 22 19 19 23 35 53 77 89 78 69 64 55 58 65 63 60 63 80 94 97 94 89 85 83 81 77 74 72 69 60 49 47 47 41 32 26 24 26 31 34 37 40 42 43 41 39 36 29 24 23 17 11 9 14 21 18 22 38 45 36 26 24 29 34 39 44 45 43 40 37 34 30 26 24 25 26 29 34 40 41 33 59 96 98 99 83 80
27 26 23 20 20 21 24 26 26 25 23 22 20 18 18 23 48 69 62 58 60 56 62 68 66 61 57 69 83 95 105 104 101 95 87 80 74 68 53 38 30 29 29 26 22 17 18 22 26 31 32 31 34 36 35 34 28 22 17 15 11 9 15 22 21 17 28 42 37 26 27 33 39 43 48 48 45 43 42 39 35 29 26 24 25 29 35 38 39 44 39 44 78 99 103 93 93
27 27 26 24 21 19 20 22 24 26 25 24 22 22 21 19 30 55 76 84 88 87 88 89 81 71 68 73 83 94 97 89 84 74 66 64 60 51 36 28 25 21 18 16 14 14 16 19 22 25 24 24 30 34 32 27 20 14 12 11 10 14 22 21 16 19 34 37 27 29 37 41 45 48 48 44 41 37 38 38 34 27 24 24 24 35 48 45 37 37 40 39 63 92 102 101 103
26 27 27 27 25 22 19 18 19 21 22 22 22 21 22 23 22 34 62 80 80 68 67 89 96 90 89 91 94 95 84 72 64 58 59 61 55 44 34 31 23 14 11 11 11 13 14 17 19 20 23 28 33 33 27 19 13 11 11 10 14 21 21 15 14 23 31 29 30 39 42 45 47 45 41 36 34 33 38 38 32 26 24 25 23 40 56 45 31 25 29 35 51 78 94 96 94
25 26 26 27 27 25 23 20 18 17 18 18 19 20 20 22 22 21 28 35 35 26 24 45 57 57 61 71 84 91 87 79 71 66 65 59 49 39 34 31 19 10 9 9 10 12 15 17 19 23 29 34 35 28 19 12 11 11 10 14 21 21 14 12 16 21 25 30 37 43 45 47 43 38 34 30 29 33 42 38 29 27 26 26 26 43 59 47 32 25 26 31 40 58 73 76 73
25 25 26 27 27 26 26 24 22 19 17 16 17 19 20 20 22 23 22 21 20 20 18 20 21 22 28 47 72 86 82 75 69 68 65 55 44 37 36 30 15 8 8 8 11 14 16 17 22 28 30 33 29 19 12 10 11 11 13 19 23 16 12 15 18 21 25 34 39 41 45 42 36 33 30 29 28 34 43 36 28 30 28 26 27 37 48 45 39 35 34 36 41 49 56 58 57
26 25 26 26 26 26 26 26 25 23 20 18 18 18 20 21 21 22 23 23 21 20 20 19 19 20 23 35 57 66 57 46 46 58 65 56 47 42 38 29 16 9 8 9 12 14 16 20 28 27 24 26 19 11 10 11 11 12 17 24 22 16 15 17 19 23 26 33 37 39 41 35 32 30 28 29 26 35 40 30 30 32 28 27 28 29 32 34 35 35 36 38 42 45 47 47 45
25 25 26 25 25 25 25 26 25 25 24 22 21 21 20 20 22 23 23 23 22 21 20 20 20 21 21 26 38 39 29 24 31 51 63 57 51 47 41 32 19 9 7 10 11 14 18 21 25 21 17 17 11 9 11 11 12 14 21 26 23 20 19 19 20 24 27 30 33 34 35 31 30 28 27 26 26 36 34 27 35 33 28 31 32 34 33 32 33 34 37 39 42 44 44 45 48
24 24 24 24 24 24 24 25 25 25 25 25 24 23 22 22 22 23 23 23 22 20 20 20 20 20 20 23 26 23 18 21 34 50 59 57 53 47 42 34 22 10 7 9 10 14 16 16 16 14 12 11 9 10 11 12 12 15 22 26 25 24 20 20 22 27 31 31 31 30 30 30 28 27 26 26 33 37 28 32 41 33 29 34 37 40 41 41 42 44 45 46 47 45 45 46 50
21 22 22 22 23 23 24 23 24 24 24 24 23 22 22 22 22 22 22 22 20 19 19 18 18 18 20 22 21 18 17 21 33 47 56 56 53 47 41 35 24 11 7 8 11 13 12 13 12 9 8 8 9 11 12 11 11 15 21 23 23 21 19 22 26 30 32 31 31 29 29 28 27 27 26 31 38 33 27 35 42 36 30 33 41 44 44 46 45 46 47 47 46 44 44 45 47
19 19 20 20 21 21 22 22 22 22 22 22 22 22 21 21 21 20 19 19 18 17 16 16 15 15 16 16 15 14 13 18 29 42 53 55 52 46 39 34 24 11 7 9 11 11 9 10 9 7 9 9 10 11 11 10 12 15 18 19 18 17 21 26 30 33 33 32 31 29 29 28 28 29 31 40 37 29 33 37 42 40 32 31 37 42 44 45 46 47 48 47 45 45 47 51 54
15 16 17 17 18 19 19 20 20 20 20 20 20 20 20 20 19 18 18 17 17 15 15 14 12 12 11 11 10 10 12 18 32 46 54 54 50 44 36 31 21 10 8 10 10 9 8 8 8 8 9 9 11 11 10 11 13 15 15 16 16 20 27 31 34 35 34 33 31 31 31 30 32 33 40 45 31 32 47 43 44 45 37 33 31 36 40 40 42 45 47 48 47 50 56 63 69
9 11 13 14 16 17 18 18 18 18 18 17 17 18 18 18 18 17 17 16 15 14 12 11 10 9 9 9 8 9 15 25 41 54 57 53 47 40 33 26 17 10 9 10 8 8 8 7 8 9 9 10 11 9 10 12 13 14 14 15 19 27 31 36 42 42 38 35 35 34 35 36 38 43 45 38 24 40 62 52 51 52 44 40 34 32 35 37 40 43 49 52 54 61 70 77 85
7 7 8 10 12 13 15 16 16 16 16 15 15 15 15 15 16 15 15 15 13 12 10 9 8 8 7 7 8 13 22 35 50 60 58 52 45 37 30 22 13 10 10 9 7 7 7 6 8 9 10 11 9 8 11 13 13 13 15 18 25 31 34 41 47 46 44 41 42 42 43 44 45 45 38 28 23 40 66 66 62 62 57 51 43 37 36 37 39 42 50 56 61 69 77 84 94
6 6 6 7 8 9 10 12 13 13 13 13 13 12 13 13 13 13 13 11 10 9 8 7 7 7 8 9 15 24 35 48 61 64 60 51 43 35 25 17 12 10 9 7 6 6 5 6 9 10 11 9 7 9 12 12 12 14 17 24 30 33 35 41 43 43 43 41 42 42 44 46 42 37 28 25 25 29 51 68 70 70 70 64 56 49 43 40 40 43 47 53 61 70 79 90 96
9 7 7 6 6 7 8 9 9 10 11 11 10 10 10 10 11 11 10 9 8 7 6 7 7 7 12 21 34 44 56 68 72 68 60 50 41 32 20 13 11 10 7 6 6 5 6 8 9 10 10 8 7 9 11 12 13 16 21 28 32 34 36 39 40 40 40 39 40 42 45 42 33 29 26 25 27 24 30 47 59 59 57 57 57 56 52 46 42 43 44 48 59 70 82 94 94
9 9 8 7 6 6 7 8 8 9 9 9 9 9 9 9 8 8 7 6 6 6 7 6 5 15 31 49 64 73 80 82 77 69 59 51 41 30 17 11 11 9 5 6 6 6 8 9 10 11 9 7 8 9 12 13 15 20 26 31 34 35 37 38 38 37 34 37 42 45 42 33 26 26 27 28 30 28 22 29 45 48 45 45 47 51 55 53 47 45 44 48 58 69 81 89 87
8 8 7 7 7 7 6 7 7 7 8 8 8 8 7 7 7 6 7 6 7 7 7 10 23 48 68 80 89 93 95 89 80 70 58 53 45 30 16 11 11 6 5 8 7 8 9 9 11 11 8 7 9 11 13 15 19 25 29 33 35 36 36 34 33 29 27 33 38 37 31 24 25 28 31 33 32 28 22 23 35 44 46 47 46 46 48 51 51 48 45 49 57 65 71 72 70
12 10 8 7 6 6 6 6 6 6 7 7 7 7 6 6 6 5 6 6 7 7 15 37 65 87 95 97 101 100 98 93 85 76 64 59 49 28 14 12 8 3 7 10 9 10 9 10 12 9 8 8 10 14 16 19 24 29 32 34 34 32 29 28 27 25 27 31 30 27 25 25 28 30 31 29 26 25 23 22 29 36 40 43 45 46 46 46 47 47 47 50 54 60 61 57 56
13 13 12 10 9 8 7 7 6 6 6 6 6 6 7 7 7 8 9 10 13 20 42 73 92 98 99 100 102 101 100 99 92 85 73 61 44 23 14 11 4 4 11 12 11 9 9 12 12 8 8 10 14 18 20 24 29 31 33 32 28 24 22 24 26 28 31 31 26 24 26 30 29 25 22 18 18 20 20 22 25 27 27 28 32 39 45 47 47 46 48 51 56 63 63 57 53
11 12 12 13 13 13 12 11 10 11 11 10 10 10 10 11 11 11 12 12 15 25 45 72 88 94 100 102 102 101 100 96 87 80 70 52 33 18 14 7 1 8 15 14 11 9 11 13 10 8 9 14 18 22 25 28 31 31 28 24 21 19 21 25 29 31 31 27 24 23 27 30 24 17 15 15 15 15 15 16 16 16 16 16 20 29 38 45 50 50 49 49 54 62 62 57 49
11 11 11 11 11 12 12 12 11 11 11 11 11 11 10 10 10 10 10 10 10 14 20 38 59 72 79 81 83 81 76 71 65 62 54 37 23 18 12 3 2 14 18 14 10 10 14 13 9 8 12 19 23 25 28 30 29 25 21 20 19 19 22 26 29 28 28 26 23 22 24 23 18 15 16 16 15 15 14 13 12 11 11 12 18 26 33 39 45 49 49 48 51 53 45 36 30
12 12 11 10 10 10 10 10 10 9 9 8 8 9 9 9 10 10 11 10 10 10 10 16 30 50 64 71 74 70 65 63 58 49 38 26 22 18 9 3 10 19 18 12 10 13 14 11 8 9 16 24 26 27 29 27 23 21 20 20 19 20 23 25 25 25 26 25 22 21 20 19 18 18 18 19 18 17 16 14 14 13 12 11 12 19 27 34 41 46 50 48 43 32 21 19 20
13 13 12 11 10 9 10 9 9 9 9 9 8 9 9 10 10 11 12 12 13 12 13 12 26 59 77 80 80 73 71 65 51 38 28 25 22 16 11 14 20 21 16 11 12 14 12 9 8 12 20 25 27 28 26 22 20 22 22 20 19 20 21 22 22 24 25 23 21 21 20 19 20 20 21 22 20 19 19 18 17 18 20 21 20 19 18 19 23 28 32 30 22 16 22 34 37
13 13 13 13 12 11 10 9 9 9 10 10 10 9 10 10 10 12 13 13 15 13 14 12 29 65 77 80 78 65 63 54 38 32 28 27 25 21 24 27 26 20 13 11 13 13 10 8 9 16 23 25 27 25 21 20 22 25 23 20 18 19 20 21 22 22 22 21 21 20 20 21 21 22 22 23 23 22 22 20 19 21 26 34 40 38 30 20 13 11 12 15 21 35 49 54 52
14 13 13 14 14 13 12 11 10 10 12 11 11 10 10 11 10 12 13 14 16 14 16 13 23 52 63 79 84 60 50 43 33 34 30 30 31 30 32 30 25 18 12 12 14 12 9 8 12 19 24 25 24 20 19 22 24 25 22 19 18 19 21 22 22 22 22 20 21 20 21 21 21 23 23 24 25 24 23 22 21 20 22 27 32 35 34 30 24 21 20 25 37 48 54 53 51
17 15 14 13 14 14 14 13 12 11 13 13 12 12 11 11 11 12 13 14 16 16 19 14 15 31 42 73 88 61 43 39 35 36 35 35 34 30 28 26 21 14 11 12 12 10 9 9 14 21 24 24 20 18 20 22 23 22 20 18 18 20 21 23 23 22 21 20 20 20 20 21 22 23 24 25 25 23 23 23 23 22 21 21 20 21 22 23 24 24 24 26 29 29 30 31 32
17 17 16 15 15 15 14 13 13 12 13 13 13 13 12 12 11 12 13 14 17 19 20 15 14 21 33 66 84 58 40 39 38 39 37 34 31 26 23 22 17 12 12 11 11 10 8 12 17 22 24 22 19 19 21 19 19 19 17 18 19 20 22 23 24 22 21 21 20 21 21 22 23 24 25 25 24 24 23 23 23 23 22 21 21 20 19 19 19 19 19 18 18 17 16 16 17
16 19 18 18 17 16 15 14 13 11 12 13 13 14 13 13 12 13 14 14 18 22 21 16 20 33 49 71 73 51 39 40 40 40 37 33 29 23 19 19 14 12 12 10 10 9 9 15 19 23 23 20 19 19 18 17 18 18 17 18 18 20 22 23 24 23 22 22 22 22 22 23 25 26 26 25 25 24 24 23 23 23 22 22 21 21 21 20 20 19 18 17 17 16 16 15 15
16 17 18 19 20 19 17 15 14 12 12 12 12 14 14 13 13 13 14 14 18 26 25 19 28 47 63 69 60 45 41 42 42 41 37 35 30 23 18 16 13 12 12 9 10 10 12 17 21 24 22 18 19 18 16 18 19 18 18 18 19 20 22 23 24 23 23 23 24 24 25 26 27 28 27 26 26 25 25 24 24 23 22 22 21 21 21 20 20 19 18 18 17 16 16 16 15
15 14 16 19 22 23 20 18 17 13 13 12 12 14 14 14 14 13 15 14 17 29 31 24 31 48 57 56 50 44 43 44 45 44 39 36 31 23 16 13 13 12 11 10 10 12 14 19 24 24 20 19 19 16 16 18 18 18 17 17 19 21 22 23 24 23 23 23 25 26 27 28 28 28 27 27 27 27 27 25 24 23 22 22 21 21 21 21 20 19 19 18 17 17 17 16 15
13 13 16 18 23 26 24 22 21 17 15 14 12 13 14 15 14 13 15 14 15 27 36 31 31 43 49 48 47 44 43 46 48 46 41 35 30 23 15 11 13 13 10 10 12 14 17 22 25 22 19 20 17 15 16 17 17 17 17 17 19 21 22 23 23 23 23 24 26 27 28 30 30 29 27 27 27 27 27 25 24 23 22 21 20 20 20 20 19 18 18 17 17 17 16 17 15
13 15 17 19 23 26 26 25 26 23 19 16 13 14 15 16 15 14 14 15 13 20 34 37 33 39 46 48 48 46 45 47 49 48 41 33 27 21 16 13 14 13 10 11 14 15 19 24 25 21 19 19 16 15 16 17 18 17 16 17 18 21 22 22 22 22 23 24 26 28 29 31 32 31 29 28 28 28 27 26 25 23 21 21 20 20 19 18 19 18 18 17 17 17 16 17 16
14 14 17 23 25 26 25 27 30 28 24 19 16 14 15 16 16 15 14 15 15 15 24 36 37 38 45 51 52 49 46 47 50 50 42 31 24 17 14 15 15 13 11 13 15 17 23 27 23 20 20 18 15 15 16 17 17 17 17 17 18 20 22 22 22 22 23 25 27 29 30 32 33 33 32 30 29 28 28 26 25 23 22 21 20 19 18 18 18 17 18 17 17 17 16 16 16
15 16 21 28 30 29 27 28 32 31 28 24 20 16 16 16 16 16 15 13 16 15 17 29 37 37 43 53 54 51 47 46 51 52 42 29 22 15 12 15 16 13 14 15 16 21 27 26 22 20 19 16 15 15 16 17 17 17 17 17 18 19 21 23 23 22 23 25 27 29 30 32 33 34 33 31 30 31 33 30 26 24 22 21 20 19 18 18 18 18 18 18 18 17 17 17 17
16 20 25 32 38 36 31 31 31 30 28 27 25 20 17 17 17 17 16 14 15 17 15 22 34 35 37 47 53 52 50 48 51 51 40 25 18 13 12 16 16 14 16 17 19 27 29 25 21 20 18 16 15 15 15 16 17 17 18 18 18 19 21 23 23 23 23 25 27 28 29 30 31 32 32 31 31 32 35 36 31 26 23 23 21 19 19 19 19 19 19 19 19 19 18 18 18
15 21 26 36 42 38 34 33 29 28 28 29 29 26 20 17 18 18 17 15 14 17 17 16 27 33 31 38 47 50 50 48 50 47 33 22 16 12 13 17 16 15 18 19 25 30 28 24 22 19 18 16 15 15 15 15 16 17 17 18 18 19 20 22 22 22 22 24 26 27 27 28 29 30 32 33 34 34 36 40 37 30 25 24 23 21 20 20 20 20 21 21 21 21 21 20 20
13 18 25 34 36 32 33 32 28 27 27 30 33 31 26 20 18 19 17 17 15 16 19 15 20 31 31 34 42 46 48 48 48 41 27 17 13 12 15 18 16 17 18 23 30 30 26 24 21 19 18 16 16 15 14 15 16 16 17 18 18 19 20 21 23 22 21 23 24 26 26 26 27 29 33 36 37 38 42 42 37 32 28 25 25 23 22 21 22 22 22 22 22 23 23 22 23
11 14 21 27 26 24 26 27 28 28 27 31 36 34 32 25 20 20 17 18 16 15 19 15 16 28 31 32 38 42 46 47 45 36 22 14 11 13 16 17 16 17 22 28 31 28 26 24 21 19 18 17 16 15 15 15 15 16 17 18 19 19 19 21 23 23 23 23 24 26 26 26 26 27 31 34 34 37 42 39 32 30 29 26 25 25 24 24 23 23 23 24 24 24 25 25 26
10 12 16 18 17 18 20 24 30 33 30 31 37 37 36 31 25 22 18 18 18 14 18 16 14 25 32 31 34 39 42 44 42 31 18 11 10 14 17 16 16 19 26 30 30 27 26 24 21 20 18 18 17 15 15 15 15 16 17 18 18 19 19 20 23 25 25 24 24 25 25 25 25 25 27 30 32 33 35 34 29 28 28 27 26 25 26 25 25 26 26 25 26 26 27 28 28
10 11 11 11 12 14 17 22 29 38 36 31 37 41 38 36 32 27 21 19 18 15 16 17 13 20 30 31 32 37 39 43 42 28 14 9 11 15 17 16 16 21 28 30 29 28 27 25 25 24 21 19 18 17 16 15 15 16 16 17 18 18 19 19 21 24 25 25 24 24 25 25 24 24 25 28 30 30 30 30 28 28 28 27 26 26 26 27 27 27 28 30 31 31 32 32 32
11 10 9 10 10 11 15 19 26 39 38 32 40 45 41 40 37 33 28 22 19 16 15 17 14 15 25 32 33 37 39 41 38 23 10 8 12 17 17 16 17 21 27 30 30 30 30 30 34 35 31 23 19 17 17 16 16 16 16 17 17 18 19 19 20 21 24 25 24 24 24 25 25 23 23 25 27 27 27 27 27 27 27 27 26 26 27 28 28 31 36 38 38 37 36 35 34
12 10 9 10 10 11 13 15 24 36 39 41 48 49 47 44 39 37 36 27 20 18 16 18 16 12 18 27 30 31 30 29 25 15 7 8 14 18 17 16 18 20 25 30 31 32 32 33 39 46 45 37 27 21 18 17 16 16 17 16 18 18 18 19 20 20 22 23 24 24 24 25 26 24 22 23 24 25 25 25 26 26 26 26 26 27 28 29 32 40 44 39 35 35 34 34 34
11 11 11 11 9 10 12 12 20 30 40 52 56 53 53 47 41 42 41 32 23 20 18 18 17 12 12 18 20 19 18 17 14 9 6 9 16 18 16 16 17 19 24 30 32 33 33 33 37 45 50 45 36 26 20 18 17 17 17 17 17 19 19 19 19 20 21 22 22 23 23 24 25 25 23 22 22 23 23 23 23 24 25 26 26 28 29 30 36 44 43 34 31 32 32 32 33
12 13 13 12 10 10 10 11 14 20 38 54 51 51 57 49 45 48 39 29 27 24 20 17 17 13 10 11 11 10 11 10 8 6 6 12 18 17 14 15 17 19 23 27 30 32 33 34 36 41 44 43 37 30 24 20 18 17 17 17 17 18 20 20 19 19 20 21 21 22 22 22 23 24 24 22 21 21 22 22 22 23 24 25 26 27 28 30 34 37 35 32 31 32 32 32 33
15 17 14 12 11 10 10 10 10 14 30 41 36 43 57 51 48 50 35 26 32 29 20 17 19 15 9 9 10 9 10 8 6 6 9 14 17 15 13 14 16 19 21 23 28 31 33 35 34 36 39 39 38 35 30 24 21 19 18 18 18 18 19 21 22 21 20 20 21 21 21 21 20 22 23 23 22 21 21 22 22 22 23 24 24 25 27 29 30 32 31 31 32 32 32 32 32
19 17 13 12 11 11 11 10 10 12 18 23 21 33 53 52 46 44 30 26 36 33 21 18 20 16 11 10 11 10 9 7 6 8 13 16 15 12 12 14 15 17 19 21 25 29 33 33 31 32 37 38 38 39 36 31 25 22 20 20 19 19 19 22 24 23 22 21 21 21 21 21 21 20 21 22 22 22 23 24 25 27 29 28 26 25 26 27 29 30 30 32 34 35 36 36 34
19 16 14 14 14 16 16 12 12 11 12 14 13 24 45 50 46 45 34 28 35 35 27 21 19 18 14 11 12 11 9 8 7 12 17 17 13 11 12 14 15 15 16 18 21 25 30 31 28 27 33 36 37 38 40 36 31 26 23 21 21 21 21 24 26 27 26 24 23 22 21 21 21 20 21 21 22 23 25 30 37 44 45 37 30 27 26 27 28 29 30 31 32 34 37 37 36
19 18 17 20 23 21 18 13 12 11 10 11 10 18 35 43 46 47 37 29 32 36 34 27 20 21 18 13 13 12 10 9 9 13 18 16 12 11 13 14 15 15 16 16 17 20 24 27 26 26 31 36 36 37 40 40 35 29 25 23 24 25 26 27 29 30 29 27 25 24 23 22 21 20 21 22 23 24 27 35 45 55 57 44 30 25 25 26 27 28 28 29 30 31 34 36 35
22 19 20 26 27 20 15 15 14 12 11 11 11 15 23 30 40 44 36 31 31 34 39 34 25 22 21 19 17 15 13 10 10 14 16 14 12 12 13 14 16 16 16 17 17 18 21 24 26 27 31 34 35 37 40 39 35 29 26 27 27 28 30 32 35 35 34 33 29 26 25 24 22 21 22 24 26 27 31 38 46 53 59 54 37 25 23 25 26 27 28 28 28 29 31 34 35
21 18 22 27 23 17 18 19 17 17 17 15 14 15 17 20 30 39 40 38 34 34 39 40 32 24 23 23 22 21 19 14 11 14 14 12 10 10 11 13 15 17 17 18 19 20 22 24 27 30 32 33 33 34 36 34 31 29 29 30 31 34 40 49 55 53 51 50 45 41 39 34 28 23 24 28 31 34 38 44 50 54 59 62 48 29 23 24 24 25 27 27 28 28 30 32 33
18 19 22 23 19 20 25 25 22 23 21 17 16 16 15 15 20 30 39 43 43 40 40 41 38 31 26 25 24 24 25 21 15 13 14 13 10 9 10 11 14 16 17 19 20 21 24 25 28 31 32 31 30 30 30 29 30 32 34 38 44 50 57 66 72 70 66 62 57 58 63 60 48 34 30 34 37 41 44 48 54 58 62 65 53 32 23 24 23 24 25 26 27 27 28 30 32
20 21 20 20 19 24 31 32 29 25 19 17 18 16 15 13 13 19 28 36 42 42 39 39 41 39 33 28 25 24 26 26 21 16 14 14 12 11 12 12 13 14 14 16 18 21 24 27 29 31 31 29 29 30 32 36 41 45 50 55 61 64 66 70 75 77 75 67 64 70 77 81 76 61 50 46 45 47 50 53 58 61 64 65 53 33 24 24 23 23 24 25 27 28 29 30 31
23 22 20 20 22 26 34 36 31 25 20 20 23 21 18 15 11 13 18 24 31 35 35 34 36 40 39 32 26 24 25 27 26 21 17 15 15 15 16 18 19 19 19 19 19 20 23 27 30 32 32 32 33 35 39 46 52 56 59 62 65 66 66 67 71 75 75 70 71 77 82 90 95 89 76 64 57 55 57 61 64 63 63 61 49 33 25 24 24 24 24 25 27 28 30 30 31
25 24 22 23 25 29 35 35 31 29 26 25 26 24 20 16 13 12 14 18 24 31 35 36 34 37 40 38 31 25 24 26 27 26 22 19 20 20 21 23 25 28 31 31 29 27 27 30 33 34 36 36 37 39 43 47 49 49 50 53 57 59 60 63 66 70 73 70 69 73 80 89 96 94 84 70 58 53 56 63 66 61 55 49 40 30 26 24 24 24 24 25 27 29 30 31 31
26 26 25 24 25 28 30 29 29 32 32 28 23 21 21 20 16 13 13 14 18 25 34 40 42 41 43 44 39 32 27 26 28 28 27 24 23 23 24 26 28 31 34 37 38 37 35 35 34 34 36 37 38 40 41 43 43 42 42 44 47 49 51 55 60 67 72 71 65 62 66 77 84 84 74 57 41 36 40 50 53 45 39 36 31 27 25 24 25 25 25 26 28 29 30 31 31
Wind_Speed
23 22 21 21 21 22 22 22 22 22 22 21 19 17 16 16 16 16 15 14 14 14 14 14 13 13 14 16 17 17 18 20 21 22 22 22 23 23 24 27 30 31 31 31 32 30 30 28 26 25 22 24 25 24 23 23 25 25 26 25 23 23 22 19 17 16 15 13 11 11 14 16 19 20 22 22 24 25 26 27 28 29 28 23 17 13 10 8 8 7 6 5 5 6 5 3 3
24 23 22 22 22 22 23 23 23 23 22 22 22 22 21 21 20 19 17 15 15 16 16 16 16 16 16 16 16 18 20 22 23 23 23 23 23 24 27 30 32 32 32 32 32 31 29 27 25 23 22 23 23 22 22 24 25 25 24 22 21 19 16 15 14 14 13 11 10 12 16 18 20 21 22 23 24 25 27 28 30 31 30 26 21 16 12 10 9 7 5 4 6 6 4 4 5
25 24 24 23 23 23 23 24 24 23 23 22 21 22 23 24 24 22 20 17 17 19 19 19 18 18 18 17 17 20 22 23 23 22 22 23 24 27 29 30 31 31 31 30 30 30 28 26 25 23 22 22 21 21 22 24 24 22 20 18 16 14 13 13 12 13 11 9 11 15 18 20 21 21 21 22 24 26 28 30 31 32 31 28 23 17 13 11 10 8 6 3 5 5 4 5 5
27 26 25 25 24 24 24 23 23 24 24 23 22 21 21 22 23 23 21 18 18 21 23 21 20 19 20 21 22 23 22 21 21 21 22 23 25 27 28 28 28 28 28 28 29 29 28 26 24 22 22 21 21 21 21 22 21 19 16 13 12 11 11 11 11 11 9 10 14 17 20 20 20 20 20 22 24 27 30 32 34 35 33 29 24 19 15 13 11 9 6 3 3 3 4 6 6
28 28 27 26 25 25 25 24 24 24 24 23 23 22 21 20 20 20 19 19 18 19 21 22 21 21 23 23 23 22 20 20 20 21 22 23 24 25 26 26 26 26 27 27 28 27 26 24 22 22 21 21 20 20 20 20 17 14 11 10 10 10 10 10 11 10 9 13 17 19 19 19 18 17 18 20 23 27 31 34 36 36 34 29 24 20 18 16 13 10 8 5 4 4 4 6 7
30 29 29 28 27 26 26 26 26 25 25 24 23 22 22 20 20 19 19 21 22 22 21 20 21 22 23 23 22 21 20 21 22 23 23 24 24 25 26 26 26 26 26 26 26 26 24 22 21 21 21 20 18 19 18 16 12 9 9 8 8 8 9 10 10 10 12 16 18 18 17 16 15 14 15 18 23 28 32 35 36 36 32 28 25 22 20 19 17 15 13 10 8 6 5 4 5
31 30 30 29 28 28 27 27 26 26 25 24 24 23 23 22 21 21 21 22 24 25 25 24 24 26 27 26 24 22 22 22 24 24 24 25 25 26 26 26 26 26 26 25 25 24 22 21 21 20 19 18 18 17 15 11 8 8 7 7 8 9 10 11 11 12 15 17 16 15 14 13 11 10 13 17 23 29 33 35 34 33 29 27 27 25 23 22 22 21 20 17 14 11 9 7 7
33 32 31 31 30 29 28 28 27 26 26 25 25 25 24 23 23 24 24 24 25 26 26 27 28 29 29 28 26 25 24 25 25 25 25 26 26 26 25 25 25 25 25 25 23 22 20 20 20 19 17 16 16 14 10 6 6 6 6 8 9 10 11 12 12 14 15 15 14 12 10 9 8 9 13 17 23 29 33 33 31 29 27 27 30 29 28 27 27 28 27 25 22 20 18 17 15
35 34 33 32 32 31 30 29 29 27 27 26 27 27 27 26 26 27 27 27 27 28 28 29 30 30 30 29 29 28 28 28 27 26 26 26 26 25 25 25 25 25 24 23 22 20 20 20 18 17 15 14 13 9 5 5 6 6 8 9 10 11 12 12 12 13 14 13 11 9 7 6 7 10 14 18 22 28 32 31 28 25 24 27 30 31 31 31 31 32 32 31 29 28 26 25 23
36 36 35 34 33 32 31 31 30 29 28 29 29 30 29 29 29 29 29 29 29 30 30 31 31 32 32 31 31 31 30 29 27 26 25 26 25 25 24 25 25 24 24 22 20 20 20 19 16 14 13 12 8 4 4 5 6 7 9 10 11 12 12 11 12 13 12 10 8 6 4 5 8 11 15 18 21 26 30 27 24 23 23 26 30 31 32 33 34 34 34 33 32 31 29 27 25
38 37 37 36 35 34 33 33 32 31 31 31 32 32 31 31 31 31 31 31 31 32 32 32 32 32 32 32 32 32 31 29 26 25 25 26 25 25 24 24 24 24 23 21 20 20 20 17 14 12 10 7 4 3 4 6 7 9 10 10 11 12 11 10 12 12 11 9 6 3 3 5 8 12 15 18 22 26 27 24 21 20 22 25 28 30 31 32 33 33 33 31 30 29 28 27 26
39 39 38 37 36 35 35 34 34 33 33 34 34 34 33 32 32 32 32 32 33 33 33 33 33 33 33 33 32 32 31 28 26 25 25 25 25 24 24 24 23 23 22 21 20 20 17 14 11 9 6 3 2 3 5 7 9 10 10 10 11 12 11 11 13 12 10 7 4 3 4 6 9 12 15 18 23 25 24 22 20 18 19 23 26 27 28 29 29 29 29 28 28 28 28 28 27
40 40 39 38 37 37 36 36 35 35 35 35 35 35 34 34 34 34 34 34 35 35 35 34 34 33 33 33 32 32 30 28 26 25 25 25 24 23 23 22 22 22 21 20 19 16 13 10 7 5 2 2 3 5 8 9 10 10 10 11 12 12 12 13 14 13 11 8 5 4 6 8 10 13 16 20 23 23 23 21 19 17 17 19 21 23 24 24 25 25 26 26 26 27 27 27 27
40 40 40 39 38 38 37 37 37 37 37 36 36 36 35 35 35 35 35 36 36 36 36 35 34 34 33 32 31 30 29 27 25 24 24 23 22 22 21 21 21 20 20 18 15 12 9 7 4 2 2 2 4 7 10 11 11 10 10 11 13 13 14 15 16 15 12 10 8 8 8 10 12 14 17 20 21 22 22 21 19 16 15 16 17 18 19 20 21 22 23 24 25 26 26 27 27
39 39 40 39 39 38 38 38 38 38 38 37 37 37 37 37 36 36 37 37 37 36 36 35 35 34 33 31 30 29 27 25 24 23 22 21 20 20 20 20 19 19 17 14 11 9 7 5 3 2 2 3 7 10 11 11 10 10 11 12 14 15 15 16 16 15 13 11 10 10 11 12 13 14 16 18 19 21 22 20 19 16 14 13 14 15 16 17 18 19 20 21 22 24 25 25 26
37 38 39 39 39 39 38 39 39 39 39 38 38 37 37 37 38 38 38 37 37 36 36 35 34 33 32 30 28 27 25 24 22 21 20 18 18 18 19 19 18 17 14 10 7 7 5 4 3 2 3 6 9 11 11 10 10 11 12 14 15 15 16 16 15 14 12 12 11 12 12 12 13 13 15 17 18 20 21 20 18 17 14 12 12 13 14 15 16 17 18 19 20 21 22 23 23
32 34 36 37 38 38 38 39 39 39 39 38 38 37 37 38 38 38 37 37 36 36 35 34 33 32 31 29 27 25 24 22 20 19 18 17 17 18 18 17 16 14 10 6 6 5 5 4 3 2 5 8 11 11 10 10 11 12 14 15 15 15 15 14 14 13 13 12 12 12 12 12 12 13 15 16 18 20 21 19 17 16 15 13 11 11 12 13 14 15 16 17 18 19 20 20 20
26 29 32 34 35 35 36 37 38 38 38 38 37 37 37 37 37 37 36 36 35 34 34 33 32 31 29 27 26 24 22 21 19 17 16 15 16 17 16 15 13 10 6 4 4 4 4 4 2 4 8 10 10 10 10 11 12 14 15 15 15 15 14 13 13 13 13 13 12 12 12 12 13 15 16 17 18 20 21 20 18 16 15 14 12 11 9 10 11 12 14 15 16 17 18 18 18
21 24 27 29 31 32 32 34 34 34 35 35 36 35 36 36 35 35 34 34 33 33 32 32 31 29 27 26 25 23 21 19 17 16 15 14 15 16 14 12 10 6 3 3 4 4 4 3 1 6 9 10 10 10 11 13 14 15 15 15 15 14 13 13 13 14 13 13 12 12 13 14 15 16 17 18 19 20 20 20 20 19 18 16 15 13 10 8 8 10 11 13 15 16 16 16 17
15 18 21 24 26 27 28 30 31 31 31 32 33 34 34 34 34 33 33 32 32 32 31 31 29 26 25 24 23 21 19 17 15 14 14 14 15 15 13 10 6 3 2 2 3 4 3 1 4 9 11 10 10 11 13 14 15 16 16 16 15 14 13 13 13 14 14 14 14 14 15 16 17 18 19 19 20 20 20 20 20 20 20 19 18 16 13 10 9 9 11 13 14 15 15 16 17
10 13 16 19 21 22 24 26 27 27 29 29 30 31 31 31 31 31 31 31 32 32 30 27 24 22 22 21 21 19 17 15 14 14 14 15 16 14 11 7 3 2 1 2 3 3 2 2 7 10 11 11 12 13 14 15 16 16 16 15 14 14 14 14 14 14 15 15 16 16 17 18 19 19 20 20 21 21 20 20 19 19 19 19 19 18 16 14 12 12 12 14 15 16 17 18 18
6 8 11 14 16 17 19 21 22 23 24 25 26 27 27 27 28 28 29 30 31 30 28 24 21 20 20 20 19 18 16 15 15 16 16 17 16 13 9 5 3 3 2 3 3 2 1 5 9 11 11 11 13 14 15 16 16 15 15 15 15 15 14 14 15 15 15 16 17 18 18 19 20 20 21 21 22 22 21 20 20 19 19 18 18 17 16 16 15 15 15 16 17 17 17 17 18
6 7 8 9 10 12 14 16 16 16 17 18 20 21 21 21 22 23 24 26 27 28 26 24 21 21 21 22 21 20 19 19 20 20 19 18 15 11 8 5 5 4 3 3 3 2 4 8 11 12 12 12 15 16 16 15 15 14 15 15 16 15 15 15 15 15 16 17 18 18 19 20 21 21 22 22 23 23 23 22 21 20 19 19 18 16 16 16 15 15 15 15 16 16 15 16 16
8 8 8 8 9 9 10 11 10 9 10 12 13 15 15 15 16 17 19 20 22 24 24 24 23 23 23 23 23 22 20 20 20 19 18 15 12 10 8 7 6 5 3 3 3 4 7 11 12 13 13 14 16 17 16 15 14 14 16 16 16 15 15 14 15 16 17 18 18 19 20 20 22 23 23 24 24 24 24 23 22 22 21 20 19 18 16 15 15 14 14 15 15 16 17 17 17
11 11 11 11 10 10 9 9 8 7 7 8 9 11 11 12 12 13 15 17 18 20 21 21 21 19 18 17 17 16 15 15 15 15 14 12 11 10 9 8 6 5 4 4 4 7 11 13 13 13 15 16 16 16 15 14 15 15 16 17 16 15 14 15 16 17 18 18 19 20 20 21 23 24 24 25 25 25 25 25 24 23 22 22 21 20 18 17 16 15 15 16 16 17 18 19 19
14 13 13 13 13 12 11 11 10 8 7 7 9 9 10 11 11 12 13 14 15 16 17 17 16 13 12 12 13 13 12 11 11 12 12 12 11 11 10 9 7 6 5 5 6 10 13 14 14 14 16 17 16 15 15 14 15 16 16 16 15 14 14 16 17 18 18 18 19 20 21 22 23 24 25 25 26 26 26 26 26 25 24 23 22 22 21 20 18 17 17 17 18 19 21 22 22
16 16 15 15 15 14 14 13 11 9 8 8 9 10 10 11 10 11 12 13 14 14 15 15 14 12 12 11 11 11 10 9 10 11 11 12 11 11 11 10 9 7 6 7 9 12 14 15 15 16 17 17 16 15 15 15 15 16 16 15 14 14 15 17 18 18 18 18 19 20 21 22 23 24 25 25 26 26 27 27 28 27 26 25 25 24 23 23 22 22 21 20 20 21 22 24 24
18 17 17 16 16 16 16 15 13 11 9 8 9 10 10 11 11 11 13 13 13 13 14 14 14 14 14 11 8 9 9 9 11 11 11 12 11 11 11 10 10 8 8 10 12 14 15 15 16 18 18 17 16 16 15 15 15 15 15 14 14 14 15 17 18 18 18 18 20 20 21 22 23 23 24 24 25 26 27 27 28 28 28 27 27 26 25 25 25 24 23 22 21 21 22 23 24
20 19 18 18 17 17 17 16 16 13 11 9 10 10 10 11 11 12 13 14 14 13 13 13 12 14 14 13 8 8 9 10 11 12 12 12 12 11 11 11 10 8 10 13 15 15 16 16 17 19 18 17 17 16 15 15 15 15 14 14 13 14 15 16 17 17 17 19 20 20 21 22 22 23 23 23 24 25 26 27 28 28 28 28 27 27 26 26 26 25 24 23 22 22 23 23 24
22 21 20 19 18 19 19 18 18 16 14 12 11 10 10 10 11 12 13 14 14 12 11 10 8 9 12 13 10 9 11 12 12 12 12 12 13 12 11 12 10 9 12 15 16 16 16 17 18 19 18 18 17 16 15 15 15 14 14 13 14 14 15 15 16 16 17 19 20 20 21 21 22 22 23 23 23 24 25 26 27 27 28 28 28 28 27 27 27 26 26 25 25 25 26 26 26
25 24 22 20 19 20 20 19 19 18 16 14 12 10 10 10 10 11 12 13 13 10 8 7 4 6 11 12 11 12 13 12 12 13 13 13 13 12 11 12 11 11 15 17 18 18 17 18 20 19 18 18 17 16 15 15 15 14 14 13 14 14 14 15 15 15 17 18 19 19 20 21 21 22 22 22 23 24 25 25 26 27 27 28 28 28 28 28 28 28 28 28 28 28 28 28 29
28 27 25 23 21 21 22 20 21 20 18 16 14 11 11 11 10 9 10 12 11 8 6 4 3 8 11 12 12 14 14 14 13 13 14 14 14 13 12 12 12 14 16 18 19 18 18 20 20 18 18 18 17 16 15 15 15 15 14 13 13 14 14 14 14 14 16 18 18 18 19 20 20 21 21 22 22 23 24 25 25 26 27 27 28 28 29 29 29 29 29 29 29 29 29 30 30
31 28 27 26 23 23 23 21 21 21 19 18 15 12 11 11 11 9 9 10 10 7 4 2 5 9 11 13 14 14 15 15 13 13 14 15 15 14 13 12 12 16 18 19 19 19 20 21 20 19 18 18 17 16 15 15 15 15 14 14 13 13 13 13 13 13 15 17 17 17 18 19 19 20 21 21 22 23 24 25 25 26 27 27 28 28 29 29 29 30 30 31 31 31 31 31 31
33 30 29 29 26 26 25 22 22 21 19 19 16 13 12 12 12 9 9 10 9 5 3 0 5 9 11 12 14 14 15 15 13 13 15 15 14 15 15 12 13 17 20 20 20 20 22 22 21 20 19 18 16 15 15 15 15 15 14 14 13 13 13 12 12 12 14 16 16 16 17 18 19 19 20 20 21 23 24 25 25 26 26 27 28 28 29 29 29 30 31 32 32 32 32 32 32
34 33 31 32 30 29 28 24 23 21 19 19 17 15 13 12 13 10 9 10 9 6 1 2 5 9 11 11 12 13 14 14 14 13 14 15 14 15 16 15 15 18 19 20 20 21 22 21 20 20 19 18 16 15 15 14 14 14 14 14 13 13 12 11 11 12 13 15 15 15 16 17 17 18 19 20 21 22 24 24 25 25 26 26 27 27 28 29 29 30 31 32 32 32 33 33 32
35 35 34 34 34 32 31 27 25 23 21 19 17 16 14 13 13 12 11 11 10 8 3 2 4 8 10 11 11 12 13 14 13 13 14 15 15 16 17 18 19 20 19 19 21 22 22 21 20 20 19 17 16 15 15 14 14 14 14 13 13 12 11 11 10 11 12 14 14 14 15 16 16 17 17 18 20 22 23 24 24 25 25 25 25 26 27 28 29 30 31 32 32 32 33 32 32
38 38 36 37 37 36 34 31 29 26 22 19 18 17 15 14 14 13 12 11 10 9 6 2 5 7 10 11 10 10 11 13 13 13 13 14 16 16 18 20 22 22 20 20 22 22 21 21 20 20 18 17 16 15 14 14 14 14 13 13 12 12 11 10 9 10 11 13 14 14 14 15 15 15 16 17 18 20 22 23 24 24 24 24 24 24 25 26 27 29 30 31 31 31 32 32 32
41 41 40 39 40 39 36 34 33 30 26 21 19 17 16 16 15 14 13 11 10 9 8 4 5 7 10 11 10 10 11 13 13 12 13 15 16 17 18 21 23 23 22 22 23 22 21 20 20 19 18 17 16 14 14 14 14 13 13 12 12 11 10 9 9 9 11 12 13 13 13 13 14 14 15 15 16 17 19 20 21 22 22 23 23 22 23 24 26 28 29 30 30 30 30 31 31
44 45 44 43 44 42 38 37 35 33 30 24 20 18 18 18 16 15 14 12 11 9 9 7 5 7 9 11 11 11 12 13 14 13 13 15 17 19 20 22 24 24 25 25 24 23 21 20 20 19 18 17 15 14 14 13 13 13 12 12 12 11 10 9 8 8 9 11 11 11 12 12 13 13 14 14 14 15 16 17 18 19 20 22 22 21 21 22 24 26 27 28 28 29 30 31 31
46 48 48 48 48 44 41 40 37 35 33 27 23 20 20 20 18 16 15 14 12 10 8 8 6 7 9 11 12 13 14 14 14 13 13 16 18 20 23 24 25 25 26 27 25 23 21 20 19 18 18 16 15 14 13 12 12 12 11 11 11 11 10 8 7 7 8 9 10 10 10 10 11 11 12 12 13 13 14 15 16 17 18 20 21 21 21 22 23 24 25 26 27 28 29 29 30
47 49 51 53 49 45 43 41 38 38 35 31 26 22 22 22 19 18 17 15 14 11 8 8 7 8 11 13 14 15 15 15 14 13 14 17 20 23 25 26 25 26 27 26 25 23 21 20 19 18 17 16 14 13 12 12 11 11 10 10 10 10 9 8 6 5 6 7 8 8 8 8 9 9 10 11 11 12 13 14 15 16 17 18 19 20 20 21 21 22 23 24 24 25 26 27 27
46 48 53 54 49 45 43 41 40 40 38 34 29 25 25 24 21 20 19 17 16 14 10 9 8 10 13 14 15 16 16 15 14 14 16 19 22 26 27 26 26 26 27 27 25 24 23 21 19 17 16 16 15 13 12 11 11 10 10 9 9 8 8 7 6 4 4 5 6 6 6 6 7 8 9 9 9 10 11 12 13 15 16 17 17 18 19 20 20 20 21 22 23 23 24 25 26
44 48 51 50 47 45 44 42 40 40 40 37 32 30 28 26 23 22 20 19 18 16 13 10 8 11 15 15 16 16 16 16 15 16 18 21 24 27 27 26 26 27 28 27 26 25 24 22 20 18 17 16 16 14 13 12 11 10 9 8 7 7 6 6 5 3 2 3 4 5 5 5 5 6 7 8 8 9 10 11 12 13 14 15 16 17 18 18 19 19 20 21 21 21 22 23 25
42 43 43 44 45 45 44 42 40 41 42 38 35 35 32 29 27 24 21 21 20 18 15 12 10 11 15 16 16 16 16 16 16 18 20 23 25 28 28 27 27 27 28 27 25 23 22 21 19 18 17 17 16 15 14 12 11 10 8 7 6 5 5 4 4 2 1 2 3 3 4 4 4 5 6 6 7 7 8 9 10 12 13 14 15 15 16 17 17 18 19 20 20 20 21 23 24
39 37 39 42 43 43 44 42 41 43 42 38 38 38 36 34 30 25 24 23 22 19 16 14 12 11 14 16 16 15 15 16 17 19 22 24 27 29 29 28 28 28 28 27 25 23 22 21 19 18 17 18 17 17 15 14 12 11 9 8 6 5 4 3 3 2 1 3 4 4 4 4 4 5 5 5 5 6 7 8 9 10 11 13 13 14 15 15 15 16 17 19 19 20 21 22 23
35 34 37 40 40 41 43 43 44 44 42 41 42 40 40 38 32 28 29 28 23 20 18 16 14 12 14 16 16 15 15 15 17 21 23 25 29 31 30 29 28 27 27 28 27 25 23 22 21 19 19 19 19 19 18 16 14 12 11 9 8 7 5 4 3 3 2 3 5 6 6 5 5 6 7 7 6 6 7 8 8 9 10 12 12 13 14 15 15 15 17 18 19 19 21 22 23
32 32 36 37 37 39 40 42 44 44 44 46 46 44 44 41 35 34 36 31 23 20 21 18 15 13 14 15 16 15 15 16 18 22 24 27 31 32 31 30 28 28 29 29 28 27 26 25 24 23 20 19 19 19 18 17 15 14 12 10 9 8 7 6 5 5 4 5 6 7 8 8 7 8 9 10 10 9 8 9 10 10 11 12 12 12 13 14 15 15 16 17 18 19 21 22 24
30 31 33 33 33 34 36 39 42 45 49 51 50 47 46 43 40 40 38 31 24 22 22 19 16 15 14 16 16 15 16 18 20 22 25 29 32 32 31 30 28 29 30 30 29 29 28 27 26 24 21 19 17 17 17 17 16 15 13 12 11 9 8 8 7 7 7 7 7 8 10 10 11 10 10 12 13 12 11 11 11 12 12 13 13 13 13 14 14 15 17 18 18 19 21 22 24
29 29 29 29 30 30 33 36 40 46 51 52 49 47 47 46 44 42 37 31 27 25 24 21 19 17 15 17 17 16 18 20 22 23 25 29 30 29 29 29 29 29 29 29 30 30 29 28 26 25 23 21 18 18 18 18 17 16 15 13 12 11 10 10 10 9 9 9 9 10 11 11 12 13 12 13 14 14 13 12 12 13 15 16 16 15 15 15 15 16 17 19 20 21 22 23 25
28 27 26 25 25 26 30 34 37 42 47 49 47 46 49 49 45 41 37 34 32 28 25 24 22 19 17 18 18 17 18 21 23 25 27 30 29 28 29 30 30 30 29 30 30 30 30 29 26 25 24 23 21 19 19 19 18 17 16 14 13 12 12 12 12 12 11 11 11 12 12 13 13 13 14 14 14 14 14 13 12 14 17 18 18 18 18 17 17 18 19 20 22 23 24 25 27
27 26 23 20 21 25 28 29 31 36 40 44 44 46 51 51 47 43 40 37 35 31 28 26 24 22 20 20 20 19 19 22 24 27 29 31 29 28 29 30 30 30 30 31 31 31 31 29 27 25 24 23 22 21 20 19 19 19 17 15 14 13 13 14 13 13 13 13 13 14 14 15 15 14 14 14 14 14 14 14 14 15 17 19 20 20 20 19 20 20 21 22 24 25 26 27 28
29 26 21 21 24 26 24 24 26 29 34 38 43 48 52 51 49 46 42 39 37 34 31 28 27 25 23 22 23 22 21 23 25 28 30 31 30 30 30 30 30 31 31 31 31 31 30 28 27 27 26 25 24 23 21 21 21 20 18 16 15 14 14 13 13 13 13 14 14 14 15 17 18 17 16 15 15 16 16 16 16 17 18 20 22 22 22 22 22 23 24 25 26 27 28 29 29
32 27 25 27 27 23 21 23 24 25 30 36 42 47 50 51 50 48 45 43 40 37 35 33 31 29 27 25 25 24 24 24 25 28 29 29 29 29 30 30 30 31 31 31 30 29 27 27 28 27 27 27 26 24 23 22 22 20 18 17 15 15 14 13 13 14 15 15 15 15 16 18 19 20 19 17 17 18 18 19 19 19 20 21 23 24 24 24 25 25 26 27 28 29 30 31 32
30 29 29 29 25 20 21 23 23 26 31 36 40 45 48 50 52 51 49 47 44 42 40 38 35 31 30 29 28 28 27 26 26 28 29 29 29 29 30 31 31 32 31 30 29 27 27 27 28 28 27 26 25 24 23 22 21 19 18 17 16 16 16 16 16 17 18 18 18 17 18 19 21 22 22 20 19 20 20 21 21 21 22 23 25 26 26 26 27 28 28 29 30 31 32 33 34
30 32 30 25 23 22 22 22 25 29 31 32 36 41 45 49 53 53 51 49 48 45 43 41 38 35 34 33 31 30 29 28 28 29 30 31 31 31 31 31 31 32 31 30 29 28 28 29 28 28 27 25 24 24 23 22 20 20 19 18 18 18 18 19 19 20 21 21 20 20 21 21 22 24 24 23 22 21 22 23 24 24 24 25 26 27 28 28 29 30 30 31 32 33 34 35 36
33 34 29 25 25 27 26 25 26 28 29 30 33 36 40 44 48 49 50 49 48 46 44 43 41 38 37 35 34 32 30 30 30 30 31 33 33 32 32 31 31 31 31 30 29 29 30 30 29 29 28 27 26 25 24 23 22 21 21 20 20 20 21 21 22 22 23 23 22 23 24 24 25 26 26 25 23 23 23 24 25 25 26 26 27 28 29 30 30 31 32 33 34 35 35 36 38
37 35 32 29 29 30 30 29 27 28 30 31 33 34 36 39 42 45 47 47 46 47 45 43 41 40 38 37 35 34 32 32 32 32 33 33 33 33 32 32 32 31 30 30 30 31 32 32 32 32 31 30 29 27 26 25 24 24 23 23 22 22 23 23 24 25 25 24 23 24 24 25 26 27 27 27 25 24 24 24 25 26 27 27 28 29 30 31 32 33 34 34 36 36 37 38 39
41 39 37 35 33 33 32 30 30 31 31 32 35 34 33 34 38 42 45 46 47 48 47 46 44 42 41 40 38 36 35 34 34 33 34 33 33 33 33 33 32 31 30 30 31 32 33 34 35 34 33 32 31 30 29 28 28 27 26 25 25 25 25 26 26 27 27 26 25 25 24 26 28 28 28 28 27 26 25 26 26 27 28 28 30 31 31 32 33 35 36 36 37 38 38 39 40
Wind_Direction
206 206 204 199 198 200 206 211 216 222 222 222 225 217 214 229 242 255 262 264 273 280 281 282 283 286 293 299 302 299 299 298 294 289 288 292 295 299 303 306 307 308 309 309 309 307 306 304 303 308 305 300 299 297 299 302 306 310 314 316 318 324 328 334 344 353 2 11 27 43 53 56 57 57 57 56 53 49 44 40 36 32 26 23 17 10 0 356 9 20 51 77 84 74 55 40 60
213 213 212 210 206 204 206 211 217 223 228 232 236 234 229 232 241 252 260 266 274 281 282 279 278 283 290 296 300 301 297 295 292 291 293 296 298 301 304 307 308 309 309 308 308 307 306 305 306 307 301 299 299 298 302 307 311 313 315 319 324 331 336 345 356 4 13 26 44 57 63 65 65 64 61 57 52 46 41 36 33 30 25 21 21 20 15 15 24 24 39 74 90 82 56 41 30
218 218 219 218 217 214 214 215 219 224 230 235 238 241 242 243 247 253 261 269 277 280 279 276 275 280 285 284 290 298 295 288 285 288 293 297 301 304 307 310 311 310 310 309 308 308 307 307 306 304 301 301 301 300 305 310 312 313 318 327 336 341 347 358 8 14 24 41 60 69 72 73 71 68 63 57 49 42 36 33 30 28 25 23 23 27 28 32 37 28 30 66 108 98 70 64 35
221 223 224 224 225 224 224 224 225 228 231 236 241 246 249 250 251 257 265 271 274 275 273 273 275 279 283 281 285 294 295 292 292 295 299 302 305 308 312 314 315 314 313 312 310 310 310 309 307 305 304 303 302 303 309 312 313 317 329 341 347 351 1 13 17 23 37 62 74 79 80 78 75 70 62 53 44 36 30 27 25 26 25 24 25 33 42 45 43 33 35 54 128 130 73 66 55
224 226 227 228 230 231 231 233 234 235 236 239 244 250 254 256 256 258 261 261 265 271 273 273 273 276 279 283 289 297 304 307 307 308 310 310 312 315 318 319 320 319 317 314 312 311 311 310 308 307 306 305 304 309 314 313 316 329 348 354 357 8 19 24 28 38 61 81 86 87 85 81 77 70 59 47 37 29 24 22 21 22 23 24 28 39 50 51 50 49 58 74 105 135 87 62 55
226 228 229 231 232 235 236 238 240 241 244 245 249 255 260 263 264 263 257 257 266 275 278 275 273 277 283 291 302 309 313 313 312 314 316 317 320 321 323 324 324 322 319 316 313 312 311 310 310 309 309 308 310 315 316 315 329 353 1 2 17 32 34 38 47 64 84 93 95 92 88 83 76 66 53 40 30 25 22 20 20 20 22 27 36 46 53 55 58 65 74 83 92 105 103 81 54
227 229 232 233 235 236 238 241 244 246 249 251 255 259 264 268 270 270 266 266 271 276 279 279 280 284 290 296 302 308 311 313 315 318 320 323 325 325 325 325 324 323 320 316 314 313 312 312 312 311 311 313 316 317 316 325 355 9 9 28 48 51 51 58 69 83 95 101 99 95 89 82 72 56 42 30 25 23 21 21 20 20 26 36 46 54 58 61 65 70 75 78 81 85 85 76 58
227 230 232 235 236 238 240 242 245 249 252 254 257 261 265 269 271 273 273 275 277 280 283 285 287 289 291 293 296 300 304 308 312 317 322 325 327 327 327 326 325 323 320 317 315 314 313 313 312 312 314 316 317 316 321 349 13 18 38 62 67 63 66 73 80 90 101 106 103 97 90 76 57 38 28 21 21 22 21 21 22 26 33 43 53 60 64 67 69 71 72 73 73 73 70 65 60
228 230 232 234 237 238 240 243 246 249 252 256 258 261 264 267 271 274 276 278 280 283 285 287 289 291 292 293 294 296 299 302 307 313 320 324 328 329 327 326 324 322 320 318 316 315 314 314 312 314 318 318 316 317 341 14 25 47 73 80 76 71 75 80 82 91 103 108 105 98 85 60 31 21 16 14 18 21 20 22 26 33 41 49 58 63 66 69 70 71 71 71 70 69 67 65 62
229 231 233 235 237 239 242 244 246 249 252 255 258 260 263 266 269 272 275 278 280 282 284 285 287 289 291 291 293 295 298 301 305 311 317 322 326 328 327 324 323 321 319 318 316 315 314 315 315 319 322 318 315 329 11 29 54 80 90 88 81 75 78 79 78 89 102 108 106 97 73 31 15 12 9 11 16 18 19 24 32 39 47 54 59 62 63 65 66 68 68 69 69 68 65 63 60
231 232 234 236 238 240 243 245 247 249 251 253 256 258 261 265 268 271 274 277 279 281 283 284 286 288 289 290 293 295 298 302 306 310 315 320 324 326 324 322 320 318 318 317 316 316 317 319 322 324 322 316 323 8 35 58 84 94 96 90 82 78 78 76 77 88 101 106 102 87 43 12 11 9 7 12 15 15 19 30 38 44 53 56 58 60 59 60 61 63 65 66 64 60 56 52 51
234 234 236 237 239 241 243 246 248 250 252 254 257 260 263 266 269 273 275 277 279 281 283 285 287 289 291 292 294 297 299 303 306 309 313 317 321 323 321 318 317 315 316 317 317 319 323 327 329 328 321 320 1 40 66 84 96 99 95 87 82 80 81 78 78 86 97 101 92 55 15 7 8 6 8 13 13 15 23 35 44 50 58 60 59 59 59 58 59 61 61 59 54 49 45 43 41
238 238 239 239 240 242 244 247 250 252 254 256 259 262 265 268 271 274 276 277 279 280 283 286 288 291 293 294 296 298 300 301 304 307 311 315 318 319 317 315 314 314 315 318 320 326 334 339 340 335 326 358 43 77 88 96 101 99 92 86 83 84 85 81 78 80 81 79 69 39 17 12 10 9 12 13 13 19 29 38 47 53 60 65 63 62 60 57 56 56 55 50 45 42 39 37 34
242 243 243 243 243 244 245 248 250 253 254 256 260 263 266 269 272 274 275 276 278 281 284 287 290 292 294 296 297 298 299 300 303 306 309 313 316 315 314 313 312 312 316 319 325 337 348 353 352 343 353 42 85 97 99 103 102 95 89 86 87 89 87 81 76 73 70 64 56 42 31 23 18 17 15 13 17 25 33 41 48 52 57 62 66 66 62 56 53 51 49 45 41 39 37 34 30
242 244 245 246 246 246 247 249 251 253 255 257 259 262 265 268 270 272 274 276 279 282 285 287 290 292 294 296 296 297 297 299 302 305 308 312 313 312 311 310 309 311 316 323 336 350 357 1 352 346 30 91 105 105 107 105 97 90 88 90 91 90 87 81 75 71 67 61 54 44 36 30 24 20 16 18 25 30 35 44 48 50 52 54 59 64 63 60 56 52 49 45 42 40 37 32 28
241 243 244 246 247 248 248 249 251 253 256 258 259 262 264 267 269 270 273 276 279 282 285 287 289 291 293 294 294 295 296 298 300 303 306 308 309 309 309 307 308 311 318 329 349 357 0 352 337 1 88 112 113 111 110 103 93 92 93 94 93 90 88 82 75 72 67 60 52 44 38 33 27 23 23 29 33 34 38 44 48 49 49 48 51 54 56 56 54 54 51 48 44 40 36 31 28
242 243 243 245 246 247 248 250 251 253 256 258 260 262 264 266 268 270 273 276 279 281 284 285 287 289 290 291 292 293 295 296 299 300 302 303 304 306 306 305 307 311 320 339 357 355 350 337 336 71 114 118 116 113 107 98 95 96 97 96 93 91 89 82 72 66 60 54 50 47 44 39 34 32 36 39 38 38 40 42 45 47 48 47 46 48 49 48 48 48 46 45 43 38 35 32 29
243 243 244 244 246 246 248 250 251 253 256 258 260 263 264 266 269 272 274 276 278 280 282 284 285 286 288 290 291 292 294 295 295 296 296 298 301 303 304 303 305 310 322 346 352 344 335 330 357 116 126 123 117 112 104 99 99 100 99 97 94 93 88 77 65 57 53 54 55 54 51 44 40 41 43 44 42 41 42 42 42 42 45 46 46 47 46 44 42 40 38 37 35 34 35 35 31
243 244 245 245 246 246 248 250 251 253 255 257 260 262 264 267 269 271 274 275 277 279 281 282 283 286 288 290 290 291 292 291 290 290 289 293 298 300 299 298 301 307 321 344 339 327 327 334 117 133 131 125 117 108 104 103 103 102 101 98 96 91 81 68 58 54 55 57 59 57 50 45 44 45 46 45 43 41 43 45 45 44 44 45 46 46 44 40 36 34 33 31 32 36 40 38 34
248 247 247 247 248 248 248 250 252 253 255 257 259 261 264 266 268 270 272 274 275 276 278 280 283 287 288 288 288 288 287 284 283 282 284 289 294 295 291 288 293 292 307 326 318 314 325 344 143 139 132 125 115 109 107 106 106 104 102 99 94 85 73 63 59 59 59 59 58 54 50 49 48 47 47 45 41 39 44 49 50 48 47 47 47 48 47 44 38 33 33 36 41 46 46 42 39
252 249 248 248 248 247 247 250 252 253 254 256 258 260 263 266 268 270 272 273 274 274 276 279 282 284 284 283 282 282 279 276 274 275 280 286 287 284 276 271 262 246 273 299 298 305 315 148 146 139 133 124 116 112 110 108 107 104 100 96 89 80 71 67 65 63 61 59 57 56 55 54 52 50 48 45 43 43 48 53 54 52 50 49 49 50 51 51 49 46 45 50 52 51 46 41 39
257 252 250 249 248 247 247 249 250 252 254 256 258 261 264 266 268 270 272 273 274 274 275 275 275 276 276 276 276 274 270 268 270 273 276 278 276 266 253 235 217 220 240 272 282 285 192 151 146 139 134 126 119 115 113 112 109 103 98 92 85 79 75 74 70 66 62 59 58 59 59 59 56 53 50 49 48 49 52 53 53 50 47 46 47 49 52 54 55 56 55 55 52 47 43 38 31
264 259 255 252 250 248 247 248 250 252 257 260 262 263 266 269 272 275 276 277 277 275 272 268 266 266 268 270 270 269 268 269 271 270 268 263 254 240 221 199 199 212 229 254 264 231 161 150 148 140 134 128 121 118 117 115 109 103 97 90 84 80 80 78 71 66 63 62 61 62 63 63 60 57 55 54 52 52 52 52 50 47 45 44 44 46 49 53 54 55 54 52 49 42 38 36 26
265 264 262 259 253 248 246 245 244 248 256 262 265 267 270 275 280 284 285 284 281 278 274 268 263 263 265 269 270 270 270 269 266 260 252 241 226 212 194 184 194 207 222 238 233 183 154 150 150 141 135 128 123 121 121 117 111 103 96 89 85 83 82 79 71 66 66 65 64 64 65 65 63 62 60 57 55 54 53 51 50 48 47 46 46 47 49 52 52 50 47 45 42 37 34 30 24
268 266 266 266 263 258 255 251 246 244 250 263 270 276 281 285 290 295 294 292 287 283 279 272 265 264 266 269 269 268 263 259 254 244 230 215 203 194 180 178 192 203 213 220 201 168 153 152 151 143 136 130 125 125 123 118 111 103 96 91 88 85 83 78 72 68 68 67 66 66 67 66 65 64 62 60 59 57 55 53 52 51 51 50 50 51 52 53 53 49 45 40 36 33 33 31 28
269 268 268 269 270 268 266 264 260 258 264 275 282 288 292 294 300 303 301 298 292 286 279 270 262 255 254 259 261 255 247 242 233 219 207 197 189 183 176 179 192 196 202 203 178 161 154 154 152 145 138 132 129 128 124 118 110 104 98 93 90 87 83 78 74 71 70 69 68 68 68 67 66 64 62 61 60 58 56 54 53 53 54 54 54 53 53 53 53 51 48 43 37 33 34 36 35
268 268 267 269 271 272 271 270 269 268 275 284 288 291 294 297 304 307 306 303 297 289 280 271 257 241 233 241 252 246 232 218 206 197 193 186 177 176 177 183 190 190 195 186 166 159 158 157 153 146 140 134 131 129 124 118 111 105 100 95 91 87 81 78 75 73 72 71 70 69 69 67 65 63 61 60 59 58 56 55 54 55 56 56 56 55 55 53 52 52 51 49 45 40 38 38 39
265 266 266 267 269 272 273 273 273 272 275 281 285 287 290 296 303 308 310 307 303 297 288 277 257 239 228 223 240 242 215 196 191 186 185 178 171 175 180 185 185 182 191 176 160 160 162 160 154 147 141 136 133 130 124 118 112 106 100 96 91 86 80 78 77 75 74 72 71 70 69 67 66 63 61 60 59 57 56 55 55 55 56 56 56 56 55 55 54 54 53 51 48 44 41 40 42
262 262 263 265 266 268 270 272 273 272 270 270 274 281 288 295 303 311 313 311 308 307 299 284 259 241 226 212 224 231 202 187 184 182 182 176 171 174 179 182 176 180 189 170 158 163 164 162 155 148 142 137 133 129 123 117 111 105 100 96 91 85 80 79 78 77 75 72 71 70 69 67 65 63 61 60 59 58 57 56 55 54 54 55 55 55 54 54 55 54 53 51 48 46 45 45 46
259 260 262 263 263 264 266 267 269 268 267 264 265 273 284 293 303 313 317 314 313 316 308 286 257 227 207 200 210 211 192 183 183 183 180 176 171 170 177 177 169 183 185 164 160 166 165 162 157 149 143 138 134 129 123 116 110 104 100 97 91 85 83 82 81 79 75 72 70 69 68 66 64 63 61 59 59 58 58 57 56 55 54 54 54 54 54 53 54 54 53 52 50 48 47 47 46
256 258 260 259 259 260 262 264 265 266 266 265 265 270 279 287 298 313 320 317 318 327 317 288 238 183 180 186 197 195 185 181 184 185 180 176 169 164 174 171 168 185 179 163 164 168 166 163 156 150 144 139 135 130 124 115 108 103 101 97 91 87 86 85 83 80 76 73 70 68 66 65 63 62 60 60 59 58 57 57 56 55 54 53 53 53 53 52 52 52 52 52 51 49 47 45 45
253 252 255 255 254 257 259 260 263 265 267 268 268 270 278 284 292 310 320 320 325 340 333 295 184 161 169 179 187 187 183 181 183 186 183 178 168 163 171 167 171 184 174 164 168 169 166 162 155 150 145 141 137 131 124 116 109 105 102 98 93 90 89 89 87 82 77 75 72 68 66 64 62 61 60 59 58 58 57 56 55 54 53 52 51 52 51 51 50 49 49 49 49 48 46 44 43
251 249 251 253 251 253 256 257 260 263 266 268 269 271 277 284 288 304 317 319 330 352 357 298 175 163 170 179 182 184 185 181 182 188 189 182 171 166 166 167 177 181 170 166 171 170 165 161 155 150 147 143 138 131 123 116 111 107 104 100 95 93 93 92 89 83 79 77 74 70 67 64 62 60 59 59 59 58 57 55 54 52 51 50 50 50 49 48 48 46 46 45 45 44 43 42 41
251 250 249 251 250 251 254 254 257 261 263 265 268 269 273 281 285 296 308 314 326 349 27 120 178 169 170 177 181 184 187 185 185 192 194 186 175 170 164 166 183 179 170 169 172 171 166 161 156 152 150 146 139 131 123 116 111 108 105 101 98 96 96 94 91 85 80 78 75 71 68 64 62 60 59 59 59 58 57 55 53 51 50 49 48 48 47 46 45 44 43 42 42 41 40 40 39
250 250 249 251 251 251 252 253 255 257 258 262 265 266 269 276 281 287 295 305 318 327 7 132 175 175 170 171 179 184 187 189 190 197 199 188 178 176 166 167 182 179 173 173 172 171 167 162 158 154 153 149 141 132 123 117 112 108 106 103 100 99 98 96 92 86 80 78 75 70 66 63 61 59 58 58 58 57 56 53 51 49 48 47 47 47 46 45 44 43 42 41 40 39 38 37 37
250 250 248 249 250 250 251 251 253 254 254 258 262 263 264 270 275 279 285 294 309 319 313 165 171 181 174 168 175 184 188 191 195 202 205 194 182 179 172 168 177 177 175 176 174 171 167 163 160 157 156 151 142 133 125 119 114 109 105 103 100 98 97 95 91 85 80 76 73 68 64 61 59 57 56 56 57 56 54 52 49 47 46 46 46 46 46 45 44 43 42 41 40 39 37 36 36
250 249 247 246 248 248 249 250 250 250 249 252 257 259 260 263 268 272 278 286 299 313 310 226 178 187 184 175 175 186 192 194 199 204 210 202 187 181 177 171 173 176 178 178 174 171 169 165 162 161 159 153 144 135 128 122 116 111 107 102 100 98 95 92 89 85 80 76 71 66 62 61 59 56 54 54 55 55 52 49 47 46 45 44 43 44 45 45 45 44 42 41 40 39 38 36 35
246 245 244 243 244 244 246 247 249 249 247 246 249 254 254 256 260 265 270 279 288 304 308 273 196 189 189 183 180 189 199 197 198 206 212 208 192 181 177 173 174 176 178 178 174 172 171 169 167 165 162 156 147 140 133 128 122 116 110 105 101 98 95 91 86 82 79 76 72 67 63 60 57 55 52 51 52 51 46 43 43 44 43 42 42 41 42 43 43 43 42 40 39 38 37 36 35
243 242 241 240 239 240 241 243 246 248 247 243 242 246 250 252 252 256 262 268 276 288 302 288 229 196 186 182 183 193 203 198 197 205 212 210 197 183 176 175 177 179 178 177 175 174 174 173 171 170 166 159 152 146 140 135 128 122 115 110 105 101 98 91 85 78 77 77 74 70 66 61 57 54 51 49 47 43 39 39 41 41 42 42 40 39 39 40 41 40 39 38 36 35 35 34 32
241 240 239 238 237 237 237 240 242 245 246 244 240 240 245 249 247 248 253 259 265 271 287 290 256 209 187 179 184 193 199 198 198 204 210 210 199 183 176 177 181 181 178 176 175 175 176 176 176 175 171 165 159 154 149 142 136 128 121 116 111 108 102 95 86 77 75 78 78 74 69 64 59 55 52 48 45 40 38 39 40 39 40 41 39 38 37 38 38 37 36 35 33 31 31 30 28
240 239 239 238 237 236 237 238 240 243 245 243 240 237 240 246 244 244 248 252 258 260 267 279 259 220 197 185 185 189 192 197 201 208 211 208 197 183 177 178 181 181 178 175 174 174 177 180 181 180 177 171 168 164 158 152 145 138 131 124 119 115 109 103 94 80 75 78 80 78 72 68 64 60 55 50 46 43 40 39 38 37 38 39 38 38 36 36 36 35 34 33 30 28 27 26 25
242 240 239 239 238 237 237 237 238 241 243 243 241 238 237 241 241 242 245 247 252 255 255 266 253 222 208 194 188 186 188 197 207 213 211 206 198 185 177 177 180 181 180 177 176 176 178 182 184 186 184 179 177 175 171 163 157 150 142 136 130 124 118 112 103 87 69 71 78 79 74 67 64 64 62 55 48 45 42 38 35 35 35 36 37 37 36 35 34 33 33 31 28 25 23 22 22
243 241 241 242 241 239 238 237 237 239 242 242 241 239 236 236 237 239 242 243 248 251 251 257 252 226 214 204 196 190 191 201 212 217 211 202 197 185 176 178 182 183 183 181 181 180 180 181 184 188 190 188 186 186 184 177 170 163 157 151 144 136 128 122 117 105 62 39 56 66 67 57 50 55 62 60 51 45 42 38 33 32 32 33 34 34 34 33 32 31 30 28 24 21 19 18 17
244 243 244 244 242 240 238 237 236 238 241 241 241 241 238 235 233 235 239 240 243 247 248 251 253 235 221 214 207 201 201 206 213 217 210 199 192 182 177 181 185 186 187 186 186 185 184 183 184 189 193 194 193 194 195 192 185 177 170 167 162 154 145 135 131 129 82 348 3 26 45 42 25 29 46 56 52 42 38 35 30 28 28 29 29 30 30 29 28 27 25 21 18 16 14 13 13
244 244 243 243 241 239 237 235 234 236 238 239 239 240 239 236 232 232 236 237 237 241 244 248 250 241 228 222 217 212 208 209 211 212 206 195 188 181 180 184 188 189 189 190 192 192 191 190 189 192 196 198 198 199 201 201 198 191 184 183 183 182 179 169 160 166 239 305 324 340 359 13 3 355 7 30 38 29 22 24 25 22 21 23 25 26 25 23 22 20 18 15 13 12 10 9 9
245 244 243 242 239 236 234 231 230 232 234 234 235 236 237 235 230 230 232 231 230 234 239 242 245 241 232 226 219 212 208 206 206 206 201 193 187 182 182 186 188 191 192 193 196 198 199 199 198 198 200 201 202 202 203 204 204 203 198 195 196 200 206 206 205 215 249 282 301 314 327 342 346 338 341 353 6 8 3 5 10 12 13 15 18 20 19 16 14 12 10 9 7 6 5 4 3
243 241 241 240 239 236 233 230 229 229 229 230 230 231 234 234 229 228 229 227 224 228 233 236 240 241 234 226 216 205 201 200 199 201 198 192 188 184 184 186 188 192 195 197 199 201 204 206 205 205 205 206 207 207 208 209 209 211 209 208 210 212 220 227 229 236 251 269 288 301 312 322 332 335 334 338 346 352 353 352 356 0 4 6 8 10 10 8 7 4 2 1 1 0 0 359 358
239 239 240 240 240 237 234 232 229 227 228 229 229 229 233 233 229 228 227 223 221 224 228 230 233 234 227 221 212 199 194 194 196 199 197 193 190 187 185 187 190 194 198 200 202 204 206 209 210 210 211 212 212 213 215 216 216 217 217 218 221 224 230 239 244 247 254 265 279 291 301 311 320 328 330 332 337 344 349 349 350 354 357 358 359 359 358 358 357 356 354 353 353 354 354 354 354
235 237 241 241 240 238 235 232 229 227 229 230 230 230 234 235 233 232 228 223 222 223 224 226 226 225 219 214 208 199 193 191 192 196 196 195 193 189 188 190 193 197 200 203 206 208 210 212 213 214 216 217 217 219 221 222 223 223 222 223 227 231 237 246 251 254 257 262 272 281 290 300 309 317 323 328 331 337 344 350 352 354 354 352 351 350 349 347 346 346 346 345 345 345 346 347 348
233 237 240 241 240 237 234 230 228 229 230 232 231 230 234 236 235 236 232 226 225 224 223 225 224 220 215 209 204 200 196 192 192 193 194 197 197 194 193 194 197 200 202 205 209 211 214 216 218 218 220 222 223 224 225 226 227 228 229 229 232 235 242 249 254 257 260 262 266 273 281 289 297 306 313 320 325 329 336 343 348 349 349 347 345 344 344 342 340 339 339 339 339 339 340 341 343
236 235 235 236 235 234 234 232 230 230 232 233 231 230 233 236 235 235 233 230 226 224 224 225 225 221 215 210 204 201 198 196 195 195 195 197 199 200 199 200 202 204 206 208 209 211 214 217 219 221 223 225 227 229 230 229 230 230 232 234 237 239 244 249 254 259 261 263 266 270 277 282 287 294 301 310 317 321 323 327 331 335 339 341 341 339 339 337 336 335 335 334 334 335 336 337 339
234 231 225 223 229 233 236 237 234 232 232 232 230 230 232 234 234 234 233 232 228 224 223 223 223 222 217 212 208 204 202 200 199 199 199 199 201 202 203 205 207 209 210 212 212 212 214 217 220 223 224 225 227 229 231 231 231 231 233 236 238 239 241 247 253 258 261 265 268 271 276 280 284 288 293 300 307 310 312 315 318 322 326 331 334 334 334 333 332 331 331 330 330 332 334 335 335
230 228 219 218 228 233 231 231 228 226 228 227 227 229 230 230 232 233 231 231 231 226 223 221 220 221 220 217 212 208 207 206 204 204 204 205 206 207 207 208 210 213 215 216 216 215 216 219 222 224 225 226 226 228 228 228 228 230 232 233 235 238 242 250 256 261 264 266 268 271 276 280 283 285 290 296 300 302 305 308 311 315 318 322 326 328 328 328 328 328 327 327 327 329 331 332 332
231 230 223 221 227 227 222 223 220 219 222 223 224 227 228 227 228 230 228 227 229 227 225 222 218 218 221 221 216 211 210 210 208 206 206 208 211 213 212 211 211 215 218 219 220 220 221 223 226 227 228 227 227 228 227 226 226 227 228 232 238 244 250 256 262 266 268 268 269 271 275 279 282 284 288 292 295 298 300 302 305 309 313 315 319 322 323 324 324 325 325 324 325 326 328 330 331
231 232 227 223 222 218 214 213 213 218 222 223 225 228 229 227 227 229 228 225 226 227 226 224 219 217 219 222 221 216 212 212 211 209 208 209 212 215 216 215 215 216 219 221 222 223 225 228 229 230 230 229 228 228 228 228 229 230 234 239 245 252 256 261 265 268 269 270 271 273 275 277 279 282 285 288 292 294 296 297 300 303 307 309 313 316 318 320 320 321 322 322 322 324 326 328 328
227 228 224 216 213 209 205 206 210 218 221 222 225 227 228 229 229 230 231 229 228 228 229 228 224 221 221 223 223 221 217 215 214 213 212 213 214 217 217 218 219 220 221 223 223 225 228 230 231 231 230 229 229 229 231 234 238 241 244 248 252 257 261 264 266 268 268 269 271 272 274 274 275 277 281 285 288 290 291 293 295 298 302 304 308 311 314 316 317 318 319 320 321 322 324 326 326
222 221 216 208 204 200 199 201 204 211 218 219 222 225 227 228 228 229 231 230 229 229 230 231 230 227 226 225 225 224 222 220 218 216 216 217 218 219 220 220 221 222 224 224 225 227 228 229 230 230 229 230 230 232 234 238 243 247 251 255 258 262 265 267 269 270 270 270 270 271 272 273 272 273 277 281 285 286 288 289 292 295 299 301 304 307 310 313 315 316 317 318 319 320 321 323 324
217 215 212 206 200 197 198 200 201 206 214 218 221 223 225 227 228 228 229 228 226 226 226 227 229 229 229 227 225 225 224 224 223 221 219 220 221 223 224 224 223 224 226 227 228 230 230 230 231 230 230 231 232 234 237 240 244 248 252 257 261 263 267 270 272 273 273 272 272 272 272 272 272 273 276 279 282 285 287 288 290 294 298 300 302 305 308 311 312 313 314 316 317 318 319 321 322